Lexington Weather

Lexington, Massachusetts, USA

47°F
10/22/2019 2:39am 
  • Lexington Conditions: Mostly cloudy
  • Temperature: 46.9°F / 8.3°CWarmer 1.4°F than last hour.
  • Dew Point: 45.5°FIncreased 2.0°Fsince last hour.
  • Relative Humidity: 95%Increased 2.0% since last hour.
  • Wind: Calm, 10-min avg: Calm, gust: None
  • Barometer: 30.12 in Steady
  • Visibility: 9 miles
  • Rain Today: 0.00 in
  •   

Regional Weather Roundup
for Boston, MA

        
000
ASUS41 KBOX 220300
RWRBOX

REGIONAL WEATHER ROUNDUP
NATIONAL WEATHER SERVICE BOSTON/NORTON MA
1100 PM EDT MON OCT 21 2019

NOTE:  "FAIR" INDICATES FEW OR NO CLOUDS BELOW 12,000 FEET WITH NO 
SIGNIFICANT WEATHER AND/OR OBSTRUCTIONS TO VISIBILITY.

MAZALL-220400-
EASTERN MASSACHUSETTS
  
CITY           SKY/WX    TMP DP  RH WIND       PRES   REMARKS
BOSTON         FAIR      53  47  79 N5        30.17F                  
BEVERLY        FAIR      44  42  93 N3        30.16F                  
LAWRENCE       FAIR      45  43  93 NE3       30.18F                  
BEDFORD        FAIR      44  39  82 CALM      30.16F                  
BLUE HILL      NOT AVBL                                               
NORWOOD        HAZE      41  36  82 CALM      30.16F VSB 1/4          
MARSHFIELD     NOT AVBL                                               
PLYMOUTH       FAIR      50  48  93 NE3       30.15F                  
TAUNTON        FAIR      39  36  89 CALM      30.15S FOG              
NEW BEDFORD    FAIR      47  45  93 N3        30.14S                  
$$

MAZALL-220400-
CAPE COD AND THE ISLANDS
  
CITY           SKY/WX    TMP DP  RH WIND       PRES   REMARKS
FALMOUTH       CLEAR     52  48  87 NE9       30.14S                  
HYANNIS        NOT AVBL                                               
CHATHAM        NOT AVBL                                               
PROVINCETOWN   FAIR      53  50  89 NE8         N/A                   
NANTUCKET      CLOUDY    54  52  93 NE15      30.12S                  
MARTHAS VNYRD  FAIR      52  49  89 NE9       30.13S                  
$$
 
MAZALL-220400-
CENTRAL AND WESTERN MASSACHUSETTS
  
CITY           SKY/WX    TMP DP  RH WIND       PRES   REMARKS
WORCESTER      FAIR      48  46  93 NE6       30.16F                  
FITCHBURG      FAIR      44  41  89 CALM      30.19S                  
ORANGE         FOG       43  41  93 CALM      30.17S VSB 1/2          
SPRINGFIELD    CLEAR     44  42  95 CALM      30.13S                  
WESTFIELD      FAIR      45  43  93 CALM      30.15R                  
NORTH ADAMS    FAIR      42  40  92 W3        30.13S                  
PITTSFIELD     FAIR      46  42  86 CALM      30.12F                  
$$
 
RIZALL-220400-
RHODE ISLAND
  
CITY           SKY/WX    TMP DP  RH WIND       PRES   REMARKS
PROVIDENCE     FAIR      50  47  89 N7        30.16F                  
NEWPORT        FAIR      52  46  80 N6        30.14S                  
BLOCK ISLAND   FAIR      54  48  80 NE14G20   30.13F                  
SMITHFIELD     FAIR     N/A N/A N/A NE6       30.16F                  
WESTERLY       FAIR      52  46  80 NE3       30.14F                  
$$
 
CTZALL-220400-
CONNECTICUT
  
CITY           SKY/WX    TMP DP  RH WIND       PRES   REMARKS
BRADLEY INTL   MOCLDY    48  44  86 CALM      30.14R                  
HARTFORD       FAIR      49  46  90 CALM      30.14S                  
BRIDGEPORT     FAIR      58  45  62 NE10      30.13S                  
DANBURY        FAIR      44  42  93 SW3       30.15R                  
GROTON         NOT AVBL                                               
NEW HAVEN      FAIR      54  45  71 NE5       30.13S                  
CHESTER        FAIR      52  41  66 VRB5      30.12F                  
MERIDEN        FAIR      49  46  90 NW3       30.13F                  
WILLIMANTIC    FAIR      45  44  97 CALM      30.16F                  
OXFORD         FAIR      50  46  86 CALM      30.14S                  
$$

MEZ002-015-021-024-NHZ003-005-008-011-012-014-VTZ005-008-220400-
NORTHERN NEW ENGLAND
  
CITY           SKY/WX    TMP DP  RH WIND       PRES   REMARKS
PORTLAND ME    FAIR      45  42  89 CALM      30.20S                  
BANGOR ME      FAIR      43  41  93 CALM      30.20R                  
CONCORD NH     FAIR      41  39  93 CALM      30.17F FOG              
MANCHESTER NH  FAIR      47  43  86 CALM      30.16F                  
NASHUA NH      FAIR      45  44  97 NW5       30.18F                  
PORTSMOUTH NH  CLEAR     45  44  97 CALM      30.17S                  
JAFFREY NH     FAIR      41  38  89 CALM      30.18S                  
KEENE NH       FAIR      41  41 100 CALM      30.17S                  
BURLINGTON VT  FAIR      42  39  89 SW5       30.13S                  
MT. WASHINGTON NOT AVBL                                               
$$

NYZ052-076-220400-
EASTERN NEW YORK
  
CITY           SKY/WX    TMP DP  RH WIND       PRES   REMARKS
ALBANY         FAIR      44  41  89 E3        30.13F                  
NEW YORK CITY  MOCLDY    59  50  72 E7        30.13R                  
$$
 
ANZALL-220400-
MARINE OBSERVATIONS
  
STATION/POSITION TIME  TEMP    WIND        PRES    VSBY  WAVE
                       AIR SEA DIR/SP/G                  HT/PER
                 (UTC) (F)     (DEG/KT/KT) (MB)    (MI)  (FT/S)
BOSTON BUOY      0150   55 57   50/  8/ 10 1021.0          3/ 6
BUZZARDS BAY     0200   54      30/ 17/ 18 1020.8R
NANTUCKET SOUND  0220      56              1020.2R
MASS BAY-STELLWA 0204      56                N/A
ISLE OF SHOALS   0200   54      60/  5/  5 1021.9R
S OF BLOCK IS    0230      60                N/A           7/10
$$

......................KEY.........................
  SKY/WX - SKY CONDITION/PRESENT WEATHER
  TMP    - TEMPERATURE IN FAHRENHEIT
  DWPT   - DEWPOINT IN FAHRENHEIT
  RH     - RELATIVE HUMIDITY IN PERCENT
  WIND   - DIRECTION AND SPEED IN MPH
  PRES   - MEAN SEA LEVEL PRESSURE IN INCHES OF HG
  WCI    - WIND CHILL INDEX
  VSB    - VISIBILITY IN MILES
  HX     - HEAT INDEX
  TC     - TEMPERATURE IN CELSIUS
  VRB    - VARIABLE WIND DIRECTION
  N/A    - NOT AVAILABLE
  
      

Other recent Regional Weather Roundups

Tue Oct 22, 2:10am

Tue Oct 22, 2:00am

Tue Oct 22, 1:10am

Tue Oct 22, 1:00am

Tue Oct 22, 12:10am

Tue Oct 22, 12:00am

Mon Oct 21, 11:10pm

Mon Oct 21, 10:10pm

Mon Oct 21, 10:01pm

Mon Oct 21, 9:10pm

Mon Oct 21, 9:00pm

Mon Oct 21, 8:10pm

Mon Oct 21, 8:00pm

Mon Oct 21, 7:10pm

Mon Oct 21, 7:01pm

Mon Oct 21, 6:10pm

Mon Oct 21, 6:01pm

Mon Oct 21, 5:10pm

Mon Oct 21, 5:01pm

Mon Oct 21, 4:10pm

Mon Oct 21, 4:00pm

Mon Oct 21, 3:10pm

Mon Oct 21, 3:01pm

Mon Oct 21, 2:10pm

Mon Oct 21, 2:00pm

Mon Oct 21, 1:10pm

Mon Oct 21, 1:01pm

Mon Oct 21, 12:10pm

Mon Oct 21, 12:00pm

Mon Oct 21, 11:10am

Mon Oct 21, 11:00am

Mon Oct 21, 10:10am

Mon Oct 21, 10:00am

Mon Oct 21, 9:10am

Mon Oct 21, 9:00am

Mon Oct 21, 7:10am

Mon Oct 21, 7:00am

Mon Oct 21, 6:10am

Mon Oct 21, 6:00am

Mon Oct 21, 5:10am

Mon Oct 21, 5:00am

Mon Oct 21, 4:10am

Mon Oct 21, 4:00am

Mon Oct 21, 3:10am

Mon Oct 21, 3:00am

Mon Oct 21, 2:10am

Mon Oct 21, 2:01am

Mon Oct 21, 1:10am

Mon Oct 21, 1:00am

Mon Oct 21, 12:10am

Mon Oct 21, 12:00am

Sun Oct 20, 11:10pm

Sun Oct 20, 11:00pm

Sun Oct 20, 10:10pm

Sun Oct 20, 10:00pm

Sun Oct 20, 9:10pm

Sun Oct 20, 9:01pm

Sun Oct 20, 8:10pm

Sun Oct 20, 8:00pm

Sun Oct 20, 7:10pm

Sun Oct 20, 7:01pm

Sun Oct 20, 6:10pm

Sun Oct 20, 6:00pm

Sun Oct 20, 5:10pm

Sun Oct 20, 5:00pm

Sun Oct 20, 4:10pm

Sun Oct 20, 4:00pm

Sun Oct 20, 3:10pm

Sun Oct 20, 3:00pm

Sun Oct 20, 2:10pm

Sun Oct 20, 2:01pm

Sun Oct 20, 1:10pm

Sun Oct 20, 1:01pm

Sun Oct 20, 12:10pm

Sun Oct 20, 12:00pm

Sun Oct 20, 11:10am

Sun Oct 20, 11:00am

Sun Oct 20, 10:10am

Sun Oct 20, 10:00am

Sun Oct 20, 9:10am

Sun Oct 20, 9:00am

Sun Oct 20, 8:10am

Sun Oct 20, 8:00am

Sun Oct 20, 7:10am

Sun Oct 20, 7:00am

Sun Oct 20, 6:10am

Sun Oct 20, 6:00am

Sun Oct 20, 5:10am

Sun Oct 20, 5:00am

Sun Oct 20, 4:10am

Sun Oct 20, 4:00am

Sun Oct 20, 3:10am

Sun Oct 20, 3:00am

Sun Oct 20, 2:10am

Sun Oct 20, 2:00am

Sun Oct 20, 1:10am

Sun Oct 20, 1:00am

Sun Oct 20, 12:10am

Sun Oct 20, 12:00am

Sat Oct 19, 11:10pm

Sat Oct 19, 11:00pm

Sat Oct 19, 10:10pm

Sat Oct 19, 10:00pm

Sat Oct 19, 9:10pm

Sat Oct 19, 9:00pm

Sat Oct 19, 8:10pm

Sat Oct 19, 8:00pm

Sat Oct 19, 7:10pm

Sat Oct 19, 7:00pm

Sat Oct 19, 6:10pm

Sat Oct 19, 6:00pm

Sat Oct 19, 5:10pm

Sat Oct 19, 5:00pm

Sat Oct 19, 4:10pm

Sat Oct 19, 4:00pm

Sat Oct 19, 3:10pm

Sat Oct 19, 3:01pm

Sat Oct 19, 2:10pm

Sat Oct 19, 2:00pm

Sat Oct 19, 1:10pm

Sat Oct 19, 1:01pm

Sat Oct 19, 12:10pm

Sat Oct 19, 12:00pm

Sat Oct 19, 11:10am

Sat Oct 19, 11:01am

Sat Oct 19, 10:10am

Sat Oct 19, 10:00am

Sat Oct 19, 9:10am

Sat Oct 19, 9:00am

Sat Oct 19, 8:10am

Sat Oct 19, 8:00am

Sat Oct 19, 7:10am

Sat Oct 19, 7:00am

Sat Oct 19, 6:10am

Sat Oct 19, 6:00am

Sat Oct 19, 5:10am

Sat Oct 19, 5:00am

Sat Oct 19, 4:10am

Sat Oct 19, 4:00am

Sat Oct 19, 3:10am

Sat Oct 19, 3:00am

Meta data:

ID: dcc83399-e2b5-4d56-ac6f-87451cc3b0eb
Link: https://api.weather.gov/products/dcc83399-e2b5-4d56-ac6f-87451cc3b0eb